Location: Bailleul
(50.3375°N, 2.8513°E)
Time: 10:06:07
(UTC+00:00)

ATLAS 3B R/B - Pass Details

Date: 16 June 2021
Orbit: 1003 x 1191 km, 63.8° (Epoch: 21 July)

Event Time Altitude Azimuth Distance (km) Brightness Sun altitude
Exits shadow 21:18:01 - 182° (S) 3,376 4.8 -9.0°
Reaches altitude 10° 21:19:51 10° 175° (S) 2,779 4.4 -9.2°
Maximum altitude 21:25:29 32° 115° (ESE) 1,677 3.3 -9.7°
Drops below altitude 10° 21:31:18 10° 55° (NE) 2,868 5.0 -10.2°
Sets 21:34:15 0° 46° (NE) 3,854 5.8 -10.4°
